Regional Weather Roundup
Issued by NWS Mt. Holly, NJ

Home | Current Version | Previous Version | Text Only | Print | Product List | Glossary On
Versions: 1 2 3 4 5 6 7 8 9 10 11 12 13 14 15 16 17 18 19 20 21 22 23 24 25 26 27
000
ASUS41 KPHI 231512
RWRPHI

REGIONAL WEATHER ROUNDUP
NATIONAL WEATHER SERVICE MOUNT HOLLY NJ
1100 AM EDT FRI JUN 23 2017

NOTE:  "FAIR" INDICATES FEW OR NO CLOUDS BELOW 12,000 FEET WITH NO
SIGNIFICANT WEATHER AND/OR OBSTRUCTIONS TO VISIBILITY.

 * = STATION DOES NOT REPORT PRECIPITATION (E.G. RAIN, SNOW, ETC.)
        OR FOG.

NJZ015>026-231600-
SOUTHERN NEW JERSEY

CITY           SKY/WX    TMP DP  RH WIND       PRES   REMARKS
POMONA         CLOUDY    75  73  93 SW10      29.85
MILLVILLE      CLOUDY    74  74 100 SW8       29.84F
WRIGHTSTOWN    PTSUNNY   78  72  81 SW14      29.78F
MOUNT HOLLY    CLOUDY    76  71  85 SW7G20    29.80F
TRENTON        CLOUDY    77  74  90 S10       29.79F

$$
NJZ001>014-231600-
NORTHERN NEW JERSEY

CITY           SKY/WX    TMP DP  RH WIND       PRES   REMARKS
SUSSEX         CLOUDY    80  72  76 SW10G17   29.77F
ANDOVER*         N/A     78  71  79 SW7       29.79F
MORRISTOWN     PTSUNNY   81  73  78 SW10G16   29.78F
NEWARK         CLOUDY    82  73  74 S10       29.77F
TETERBORO      CLOUDY    81  74  79 S12       29.76F
CALDWELL       CLOUDY    82  71  69 SW6       29.77F
SOMERVILLE     CLOUDY    80  73  79 SW9G17    29.77F
ALLAIRE*       LGT RAIN  77  72  84 SW13G22   29.82F
TOMS RIVER*    LGT RAIN  79  71  76 SW22G30   29.83F

$$
PAZ043-044-047-054-055-060>062-066>071-231600-
EASTERN PENNSYLVANIA

CITY           SKY/WX    TMP DP  RH WIND       PRES   REMARKS
PHILADELPHIA   CLOUDY    75  71  87 S17       29.81F
NORTH PHILA    CLOUDY    79  71  76 SW17G25   29.81F
BLUE BELL*     CLOUDY    73  72  94 SW8       29.81F
DOYLESTOWN     CLOUDY    75  72  90 S9        29.79F
QUAKERTOWN*    CLOUDY    73  73 100 SW6       29.80F
PERKASIE*      PTSUNNY   73  73 100 SW6       29.81F
POTTSTOWN      CLOUDY    74  72  93 SW8       29.81F
LANCASTER      CLOUDY    76  73  91 S13       29.78F
COATESVILLE    CLOUDY    72  72 100 S8G15     29.82F
READING        LGT RAIN  74  73  97 S8        29.76F
ALLENTOWN      LGT RAIN  77  69  76 SW9G20    29.78F
MOUNT POCONO   LGT RAIN  72  68  87 SW9       29.82F
HAZLETON         N/A     73  68  83 S7        29.83F
LEHIGHTON      RAIN      73  70  88 SW3       29.78F
WILKES BARRE   CLOUDY    78  69  73 VRB7G20   29.75F

$$
DEZALL-MDZ008-012-015-019-020-231600-
DELAWARE AND EASTERN MARYLAND

CITY           SKY/WX    TMP DP  RH WIND       PRES   REMARKS
WILMINGTON     CLOUDY    74  72  93 S12       29.82F
DOVER          PTSUNNY   75  75 100 S17       29.82F
GEORGETOWN     CLOUDY    77  73  87 SW14G23   29.87F
EASTON         PTSUNNY   77  73  88 SW14G20   29.89F
ABERDEEN       CLOUDY    76  73  91 SW10      29.81F FOG
PATUXENT       CLOUDY    79  73  82 SW14G22   29.85F
OCEAN CITY     CLOUDY    77  72  84 SW12      29.90F
WALLOPS ISLAND CLOUDY    78  75  90 S13       29.91F
CAMBRIDGE      CLOUDY    77  73  88 S8G16     29.86F
SALISBURY      CLOUDY    76  75  97 S13       29.89F

$$
PAZ001-021-NYZ056-072-MDZ011-DCZ001-231600-
OTHER NEARBY LOCATIONS

CITY           SKY/WX    TMP DP  RH WIND       PRES   REMARKS
HARRISBURG     CLOUDY    75  71  87 SW10G16   29.76F
STATE COLLEGE  CLOUDY    72  68  88 S6        29.78S
WILLIAMSPORT   CLOUDY    75  69  81 CALM      29.72F
BINGHAMTON     NOT AVBL
NEW YORK CITY  CLOUDY    80  73  79 W5        29.80F
BALTIMORE      CLOUDY    77  74  90 SW9G18    29.81F
WASHINGTON DC  PTSUNNY   82  75  79 S16G25    29.82F

$$




USA.gov is the U.S. government's official web portal to all federal, state and local government web resources and services.